Time,TemperatureF,DewpointF,PressureIn,WindDirection,WindDirectionDegrees,WindSpeedMPH,WindSpeedGustMPH,Humidity,HourlyPrecipIn,Conditions,Clouds,dailyrainin,SoftwareType,DateUTC
2013-01-10 00:00:00,22.1,19.4,30.39,NE,48,0.0,0.0,89,0.00,,,0.00,Wunderground v.1.15,2013-01-10 06:00:00,
2013-01-10 00:10:00,21.8,18.8,30.39,NE,48,0.0,0.0,88,0.00,,,0.00,Wunderground v.1.15,2013-01-10 06:10:00,
2013-01-10 00:15:00,21.5,18.5,30.39,NE,48,0.0,1.0,88,0.00,,,0.00,Wunderground v.1.15,2013-01-10 06:15:00,
2013-01-10 00:20:00,21.3,18.3,30.40,NE,48,0.0,0.0,88,0.00,,,0.00,Wunderground v.1.15,2013-01-10 06:20:00,
2013-01-10 00:30:00,21.1,18.4,30.40,East,79,1.0,1.0,89,0.00,,,0.00,Wunderground v.1.15,2013-01-10 06:30:00,
2013-01-10 00:35:00,21.3,18.8,30.40,East,87,1.0,2.0,90,0.00,,,0.00,Wunderground v.1.15,2013-01-10 06:35:00,
2013-01-10 00:45:00,21.9,19.2,30.40,East,87,1.0,1.0,89,0.00,,,0.00,Wunderground v.1.15,2013-01-10 06:45:00,
2013-01-10 00:55:00,22.1,19.4,30.41,SSW,198,1.0,1.0,89,0.00,,,0.00,Wunderground v.1.15,2013-01-10 06:55:00,
2013-01-10 01:00:00,22.6,20.1,30.41,SSW,193,2.0,2.0,90,0.00,,,0.00,Wunderground v.1.15,2013-01-10 07:00:00,
2013-01-10 01:10:00,23.8,20.8,30.41,South,190,3.0,3.0,88,0.00,,,0.00,Wunderground v.1.15,2013-01-10 07:10:00,
2013-01-10 01:20:00,24.4,21.1,30.42,SSW,196,3.0,4.0,87,0.00,,,0.00,Wunderground v.1.15,2013-01-10 07:20:00,
2013-01-10 01:30:00,24.6,21.0,30.42,SSW,204,2.0,2.0,86,0.00,,,0.00,Wunderground v.1.15,2013-01-10 07:30:00,
2013-01-10 01:40:00,24.4,20.8,30.43,SSW,204,2.0,2.0,86,0.00,,,0.00,Wunderground v.1.15,2013-01-10 07:40:00,
2013-01-10 01:50:00,24.4,20.8,30.44,SSW,205,2.0,2.0,86,0.00,,,0.00,Wunderground v.1.15,2013-01-10 07:50:00,
2013-01-10 02:00:00,24.5,20.9,30.45,SSW,199,2.0,2.0,86,0.00,,,0.00,Wunderground v.1.15,2013-01-10 08:00:00,
2013-01-10 02:05:00,24.5,20.9,30.45,SSW,199,2.0,2.0,86,0.00,,,0.00,Wunderground v.1.15,2013-01-10 08:05:00,
2013-01-10 02:15:00,24.4,20.8,30.45,SSW,199,1.0,2.0,86,0.00,,,0.00,Wunderground v.1.15,2013-01-10 08:15:00,
2013-01-10 02:25:00,24.1,20.5,30.44,SSW,199,1.0,1.0,86,0.00,,,0.00,Wunderground v.1.15,2013-01-10 08:25:00,
2013-01-10 02:30:00,24.0,20.4,30.44,SSW,199,0.0,0.0,86,0.00,,,0.00,Wunderground v.1.15,2013-01-10 08:30:00,
2013-01-10 02:40:00,23.6,20.3,30.44,SSW,199,0.0,0.0,87,0.00,,,0.00,Wunderground v.1.15,2013-01-10 08:40:00,
2013-01-10 02:50:00,23.2,19.9,30.44,SSW,199,0.0,2.0,87,0.00,,,0.00,Wunderground v.1.15,2013-01-10 08:50:00,
2013-01-10 02:55:00,23.0,19.7,30.44,SSW,199,1.0,2.0,87,0.00,,,0.00,Wunderground v.1.15,2013-01-10 08:55:00,
2013-01-10 03:00:00,22.7,19.4,30.44,SSW,199,1.0,1.0,87,0.00,,,0.00,Wunderground v.1.15,2013-01-10 09:00:00,
2013-01-10 03:10:00,22.7,19.7,30.44,SSW,199,1.0,1.0,88,0.00,,,0.00,Wunderground v.1.15,2013-01-10 09:10:00,
2013-01-10 03:15:00,22.7,19.7,30.44,SSW,199,0.0,1.0,88,0.00,,,0.00,Wunderground v.1.15,2013-01-10 09:15:00,
2013-01-10 03:25:00,22.7,19.4,30.44,SSW,199,0.0,0.0,87,0.00,,,0.00,Wunderground v.1.15,2013-01-10 09:25:00,
2013-01-10 03:35:00,22.5,19.2,30.44,SSW,199,0.0,0.0,87,0.00,,,0.00,Wunderground v.1.15,2013-01-10 09:35:00,
2013-01-10 03:40:00,22.3,19.0,30.44,SSW,199,0.0,0.0,87,0.00,,,0.00,Wunderground v.1.15,2013-01-10 09:40:00,
2013-01-10 03:50:00,22.0,19.0,30.44,SSW,199,1.0,1.0,88,0.00,,,0.00,Wunderground v.1.15,2013-01-10 09:50:00,
2013-01-10 04:00:00,22.0,19.0,30.44,SSW,199,0.0,0.0,88,0.00,,,0.00,Wunderground v.1.15,2013-01-10 10:00:00,
2013-01-10 04:10:00,22.5,19.7,30.44,SSW,199,1.0,1.0,89,0.00,,,0.00,Wunderground v.1.15,2013-01-10 10:10:00,
2013-01-10 04:20:00,22.5,19.5,30.43,SSW,199,0.0,0.0,88,0.00,,,0.00,Wunderground v.1.15,2013-01-10 10:20:00,
2013-01-10 04:30:00,22.5,19.7,30.42,SSW,199,0.0,0.0,89,0.00,,,0.00,Wunderground v.1.15,2013-01-10 10:30:00,
2013-01-10 04:35:00,22.5,19.7,30.42,SSW,199,0.0,0.0,89,0.00,,,0.00,Wunderground v.1.15,2013-01-10 10:35:00,
2013-01-10 04:40:00,22.7,19.9,30.42,SSW,199,0.0,0.0,89,0.00,,,0.00,Wunderground v.1.15,2013-01-10 10:40:00,
2013-01-10 04:50:00,22.8,20.0,30.43,SSW,199,0.0,0.0,89,0.00,,,0.00,Wunderground v.1.15,2013-01-10 10:50:00,
2013-01-10 05:00:00,22.7,19.9,30.42,SSW,199,0.0,0.0,89,0.00,,,0.00,Wunderground v.1.15,2013-01-10 11:00:00,
2013-01-10 05:10:00,22.5,19.5,30.42,SSW,199,0.0,0.0,88,0.00,,,0.00,Wunderground v.1.15,2013-01-10 11:10:00,
2013-01-10 05:20:00,21.3,18.3,30.42,SSW,199,0.0,0.0,88,0.00,,,0.00,Wunderground v.1.15,2013-01-10 11:20:00,
2013-01-10 05:30:00,20.5,17.5,30.42,SSW,199,0.0,0.0,88,0.00,,,0.00,Wunderground v.1.15,2013-01-10 11:30:00,
2013-01-10 05:40:00,20.3,18.1,30.42,SSW,199,0.0,0.0,91,0.00,,,0.00,Wunderground v.1.15,2013-01-10 11:40:00,
2013-01-10 05:50:00,20.3,18.1,30.43,SSW,199,0.0,0.0,91,0.00,,,0.00,Wunderground v.1.15,2013-01-10 11:50:00,
2013-01-10 06:00:00,20.2,18.0,30.42,SSW,199,0.0,0.0,91,0.00,,,0.00,Wunderground v.1.15,2013-01-10 12:00:00,
2013-01-10 06:10:00,20.4,18.2,30.42,SSW,199,0.0,0.0,91,0.00,,,0.00,Wunderground v.1.15,2013-01-10 12:10:00,
2013-01-10 06:15:00,20.3,18.1,30.42,SSW,199,0.0,1.0,91,0.00,,,0.00,Wunderground v.1.15,2013-01-10 12:15:00,
2013-01-10 06:25:00,20.0,17.8,30.42,SSW,199,0.0,1.0,91,0.00,,,0.00,Wunderground v.1.15,2013-01-10 12:25:00,
2013-01-10 06:35:00,19.9,17.7,30.42,SSW,199,0.0,0.0,91,0.00,,,0.00,Wunderground v.1.15,2013-01-10 12:35:00,
2013-01-10 06:45:00,19.9,17.7,30.41,SSW,199,1.0,1.0,91,0.00,,,0.00,Wunderground v.1.15,2013-01-10 12:45:00,
2013-01-10 06:55:00,19.7,17.5,30.41,SSW,199,1.0,1.0,91,0.00,,,0.00,Wunderground v.1.15,2013-01-10 12:55:00,
2013-01-10 07:00:00,19.6,17.4,30.41,SSW,199,0.0,0.0,91,0.00,,,0.00,Wunderground v.1.15,2013-01-10 13:00:00,
2013-01-10 07:10:00,19.5,17.6,30.41,SSW,199,0.0,0.0,92,0.00,,,0.00,Wunderground v.1.15,2013-01-10 13:10:00,
2013-01-10 07:15:00,19.4,17.5,30.42,SSW,199,0.0,0.0,92,0.00,,,0.00,Wunderground v.1.15,2013-01-10 13:15:00,
2013-01-10 07:25:00,19.2,17.3,30.42,SSW,199,0.0,1.0,92,0.00,,,0.00,Wunderground v.1.15,2013-01-10 13:25:00,
2013-01-10 07:35:00,19.3,17.6,30.41,SSW,199,0.0,2.0,93,0.00,,,0.00,Wunderground v.1.15,2013-01-10 13:35:00,
2013-01-10 07:45:00,19.5,17.8,30.41,SSW,199,1.0,1.0,93,0.00,,,0.00,Wunderground v.1.15,2013-01-10 13:45:00,
2013-01-10 07:55:00,19.7,18.0,30.41,East,100,2.0,2.0,93,0.00,,,0.00,Wunderground v.1.15,2013-01-10 13:55:00,
2013-01-10 08:00:00,19.7,18.0,30.41,East,100,2.0,2.0,93,0.00,,,0.00,Wunderground v.1.15,2013-01-10 14:00:00,
2013-01-10 08:05:00,19.5,17.6,30.41,East,100,1.0,2.0,92,0.00,,,0.00,Wunderground v.1.15,2013-01-10 14:05:00,
2013-01-10 08:15:00,19.4,17.5,30.41,East,100,1.0,1.0,92,0.00,,,0.00,Wunderground v.1.15,2013-01-10 14:15:00,
2013-01-10 08:20:00,19.5,17.6,30.41,East,100,1.0,1.0,92,0.00,,,0.00,Wunderground v.1.15,2013-01-10 14:20:00,
2013-01-10 08:30:00,20.0,18.1,30.40,East,100,0.0,0.0,92,0.00,,,0.00,Wunderground v.1.15,2013-01-10 14:30:00,
2013-01-10 08:40:00,20.8,18.8,30.40,East,101,0.0,0.0,92,0.00,,,0.00,Wunderground v.1.15,2013-01-10 14:40:00,
2013-01-10 08:50:00,21.8,19.6,30.40,East,100,0.0,0.0,91,0.00,,,0.00,Wunderground v.1.15,2013-01-10 14:50:00,
2013-01-10 09:00:00,22.8,20.3,30.40,East,101,0.0,1.0,90,0.00,,,0.00,Wunderground v.1.15,2013-01-10 15:00:00,
2013-01-10 09:10:00,23.6,20.6,30.40,East,101,1.0,1.0,88,0.00,,,0.00,Wunderground v.1.15,2013-01-10 15:10:00,
2013-01-10 09:15:00,24.0,20.7,30.40,East,101,1.0,1.0,87,0.00,,,0.00,Wunderground v.1.15,2013-01-10 15:15:00,
2013-01-10 09:25:00,24.7,21.1,30.40,East,101,1.0,1.0,86,0.00,,,0.00,Wunderground v.1.15,2013-01-10 15:25:00,
2013-01-10 09:35:00,25.2,21.0,30.39,East,101,1.0,2.0,84,0.00,,,0.00,Wunderground v.1.15,2013-01-10 15:35:00,
2013-01-10 09:40:00,25.6,21.4,30.39,East,101,1.0,1.0,84,0.00,,,0.00,Wunderground v.1.15,2013-01-10 15:40:00,
2013-01-10 09:50:00,26.4,21.7,30.38,East,101,0.0,0.0,82,0.00,,,0.00,Wunderground v.1.15,2013-01-10 15:50:00,
2013-01-10 10:00:00,27.0,21.9,30.38,East,101,0.0,0.0,81,0.00,,,0.00,Wunderground v.1.15,2013-01-10 16:00:00,
2013-01-10 10:10:00,27.2,22.1,30.37,East,101,1.0,1.0,81,0.00,,,0.00,Wunderground v.1.15,2013-01-10 16:10:00,
2013-01-10 10:15:00,27.4,22.0,30.37,East,101,1.0,1.0,80,0.00,,,0.00,Wunderground v.1.15,2013-01-10 16:15:00,
2013-01-10 10:25:00,28.3,22.6,30.37,East,101,1.0,1.0,79,0.00,,,0.00,Wunderground v.1.15,2013-01-10 16:25:00,
2013-01-10 10:35:00,29.6,23.3,30.37,East,101,1.0,2.0,77,0.00,,,0.00,Wunderground v.1.15,2013-01-10 16:35:00,
2013-01-10 10:45:00,30.4,23.4,30.36,East,94,2.0,2.0,75,0.00,,,0.00,Wunderground v.1.15,2013-01-10 16:45:00,
2013-01-10 10:50:00,30.6,23.6,30.36,East,100,2.0,3.0,75,0.00,,,0.00,Wunderground v.1.15,2013-01-10 16:50:00,
2013-01-10 11:00:00,31.1,23.5,30.35,SE,140,1.0,1.0,73,0.00,,,0.00,Wunderground v.1.15,2013-01-10 17:00:00,
2013-01-10 11:10:00,31.6,23.6,30.34,SE,138,2.0,2.0,72,0.00,,,0.00,Wunderground v.1.15,2013-01-10 17:10:00,
2013-01-10 11:20:00,32.3,24.3,30.33,ESE,122,2.0,2.0,72,0.00,,,0.00,Wunderground v.1.15,2013-01-10 17:20:00,
2013-01-10 11:30:00,33.3,24.6,30.32,ESE,117,2.0,2.0,70,0.00,,,0.00,Wunderground v.1.15,2013-01-10 17:30:00,
2013-01-10 11:40:00,33.4,24.7,30.32,SE,136,2.0,2.0,70,0.00,,,0.00,Wunderground v.1.15,2013-01-10 17:40:00,
2013-01-10 11:50:00,33.8,24.7,30.31,ESE,108,2.0,2.0,69,0.00,,,0.00,Wunderground v.1.15,2013-01-10 17:50:00,
2013-01-10 12:00:00,34.0,24.9,30.30,East,95,2.0,2.0,69,0.00,,,0.00,Wunderground v.1.15,2013-01-10 18:00:00,
2013-01-10 12:10:00,33.4,24.3,30.29,East,84,2.0,5.0,69,0.00,,,0.00,Wunderground v.1.15,2013-01-10 18:10:00,
2013-01-10 12:20:00,33.6,24.9,30.28,ESE,119,3.0,3.0,70,0.00,,,0.00,Wunderground v.1.15,2013-01-10 18:20:00,
2013-01-10 12:30:00,33.8,25.0,30.27,East,101,2.0,2.0,70,0.00,,,0.00,Wunderground v.1.15,2013-01-10 18:30:00,
2013-01-10 12:40:00,34.4,25.3,30.27,East,101,1.0,1.0,69,0.00,,,0.00,Wunderground v.1.15,2013-01-10 18:40:00,
2013-01-10 12:50:00,34.9,25.4,30.26,ESE,123,1.0,2.0,68,0.00,,,0.00,Wunderground v.1.15,2013-01-10 18:50:00,
2013-01-10 12:55:00,35.3,25.4,30.26,SSE,154,1.0,2.0,67,0.00,,,0.00,Wunderground v.1.15,2013-01-10 18:55:00,
2013-01-10 13:00:00,35.6,25.4,30.25,ESE,105,2.0,5.0,66,0.00,,,0.00,Wunderground v.1.15,2013-01-10 19:00:00,
2013-01-10 13:10:00,35.6,26.1,30.24,East,88,2.0,2.0,68,0.00,,,0.00,Wunderground v.1.15,2013-01-10 19:10:00,
2013-01-10 13:15:00,35.3,26.1,30.24,East,88,2.0,2.0,69,0.00,,,0.00,Wunderground v.1.15,2013-01-10 19:15:00,
2013-01-10 13:25:00,34.7,25.9,30.23,East,100,2.0,3.0,70,0.00,,,0.00,Wunderground v.1.15,2013-01-10 19:25:00,
2013-01-10 13:30:00,34.6,25.8,30.22,East,98,2.0,3.0,70,0.00,,,0.00,Wunderground v.1.15,2013-01-10 19:30:00,
2013-01-10 13:40:00,34.6,25.8,30.21,East,84,3.0,3.0,70,0.00,,,0.00,Wunderground v.1.15,2013-01-10 19:40:00,
2013-01-10 13:50:00,34.5,26.1,30.20,East,89,4.0,4.0,71,0.00,,,0.00,Wunderground v.1.15,2013-01-10 19:50:00,
2013-01-10 13:55:00,34.7,26.3,30.20,East,96,3.0,4.0,71,0.00,,,0.00,Wunderground v.1.15,2013-01-10 19:55:00,
2013-01-10 14:00:00,35.0,25.9,30.21,East,100,3.0,3.0,69,0.00,,,0.00,Wunderground v.1.15,2013-01-10 20:00:00,
2013-01-10 14:10:00,35.3,25.8,30.21,East,96,4.0,4.0,68,0.00,,,0.00,Wunderground v.1.15,2013-01-10 20:10:00,
2013-01-10 14:15:00,35.3,25.8,30.21,East,90,4.0,4.0,68,0.00,,,0.00,Wunderground v.1.15,2013-01-10 20:15:00,
2013-01-10 14:25:00,35.2,25.7,30.21,East,93,3.0,3.0,68,0.00,,,0.00,Wunderground v.1.15,2013-01-10 20:25:00,
2013-01-10 14:30:00,35.1,25.6,30.21,East,98,3.0,3.0,68,0.00,,,0.00,Wunderground v.1.15,2013-01-10 20:30:00,
2013-01-10 14:35:00,35.1,25.6,30.20,East,92,3.0,5.0,68,0.00,,,0.00,Wunderground v.1.15,2013-01-10 20:35:00,
2013-01-10 14:45:00,35.0,25.5,30.20,East,96,2.0,3.0,68,0.00,,,0.00,Wunderground v.1.15,2013-01-10 20:45:00,
2013-01-10 14:50:00,35.0,25.5,30.20,East,93,2.0,2.0,68,0.00,,,0.00,Wunderground v.1.15,2013-01-10 20:50:00,
2013-01-10 14:55:00,34.9,25.0,30.20,East,92,3.0,3.0,67,0.00,,,0.00,Wunderground v.1.15,2013-01-10 20:55:00,
2013-01-10 15:00:00,34.8,25.3,30.20,ESE,117,3.0,3.0,68,0.00,,,0.00,Wunderground v.1.15,2013-01-10 21:00:00,
2013-01-10 15:10:00,34.8,24.6,30.21,SE,144,2.0,5.0,66,0.00,,,0.00,Wunderground v.1.15,2013-01-10 21:10:00,
2013-01-10 15:20:00,34.8,25.0,30.20,SSE,159,2.0,2.0,67,0.00,,,0.00,Wunderground v.1.15,2013-01-10 21:20:00,
2013-01-10 15:30:00,34.8,25.0,30.20,ESE,121,2.0,2.0,67,0.00,,,0.00,Wunderground v.1.15,2013-01-10 21:30:00,
2013-01-10 15:35:00,34.8,25.0,30.19,ESE,120,3.0,3.0,67,0.00,,,0.00,Wunderground v.1.15,2013-01-10 21:35:00,
2013-01-10 15:45:00,34.8,25.3,30.19,ESE,105,3.0,3.0,68,0.00,,,0.00,Wunderground v.1.15,2013-01-10 21:45:00,
2013-01-10 15:55:00,34.9,25.0,30.18,East,101,3.0,3.0,67,0.00,,,0.00,Wunderground v.1.15,2013-01-10 21:55:00,
2013-01-10 16:00:00,35.0,25.1,30.18,ESE,107,3.0,4.0,67,0.00,,,0.00,Wunderground v.1.15,2013-01-10 22:00:00,
2013-01-10 16:10:00,35.1,25.6,30.17,SSE,160,3.0,3.0,68,0.00,,,0.00,Wunderground v.1.15,2013-01-10 22:10:00,
2013-01-10 16:15:00,35.1,25.6,30.17,ESE,109,3.0,4.0,68,0.00,,,0.00,Wunderground v.1.15,2013-01-10 22:15:00,
2013-01-10 16:25:00,35.2,25.7,30.17,East,100,4.0,4.0,68,0.00,,,0.00,Wunderground v.1.15,2013-01-10 22:25:00,
2013-01-10 16:35:00,34.7,25.9,30.16,ESE,107,4.0,4.0,70,0.00,,,0.00,Wunderground v.1.15,2013-01-10 22:35:00,
2013-01-10 16:45:00,34.2,26.1,30.15,East,92,5.0,7.0,72,0.00,,,0.00,Wunderground v.1.15,2013-01-10 22:45:00,
2013-01-10 16:55:00,33.8,26.1,30.14,East,101,5.0,5.0,73,0.00,,,0.00,Wunderground v.1.15,2013-01-10 22:55:00,
2013-01-10 17:00:00,33.7,26.3,30.14,East,86,5.0,6.0,74,0.00,,,0.00,Wunderground v.1.15,2013-01-10 23:00:00,
2013-01-10 17:10:00,33.7,26.6,30.13,East,101,4.0,4.0,75,0.00,,,0.00,Wunderground v.1.15,2013-01-10 23:10:00,
2013-01-10 17:20:00,33.7,27.6,30.12,ESE,103,4.0,4.0,78,0.00,,,0.00,Wunderground v.1.15,2013-01-10 23:20:00,
2013-01-10 17:30:00,33.8,28.0,30.11,East,94,4.0,6.0,79,0.00,,,0.00,Wunderground v.1.15,2013-01-10 23:30:00,
2013-01-10 17:40:00,33.9,28.4,30.10,East,83,3.0,7.0,80,0.00,,,0.00,Wunderground v.1.15,2013-01-10 23:40:00,
2013-01-10 17:50:00,34.2,29.0,30.10,SE,132,4.0,4.0,81,0.00,,,0.00,Wunderground v.1.15,2013-01-10 23:50:00,
2013-01-10 17:55:00,34.3,29.1,30.10,ESE,106,4.0,4.0,81,0.00,,,0.00,Wunderground v.1.15,2013-01-10 23:55:00,
2013-01-10 18:00:00,34.4,29.2,30.10,East,89,4.0,7.0,81,0.00,,,0.00,Wunderground v.1.15,2013-01-11 00:00:00,
2013-01-10 18:10:00,34.6,29.7,30.09,ESE,121,4.0,4.0,82,0.00,,,0.00,Wunderground v.1.15,2013-01-11 00:10:00,
2013-01-10 18:15:00,34.7,29.8,30.09,East,98,4.0,5.0,82,0.00,,,0.00,Wunderground v.1.15,2013-01-11 00:15:00,
2013-01-10 18:25:00,35.1,30.5,30.08,SE,128,4.0,4.0,83,0.00,,,0.01,Wunderground v.1.15,2013-01-11 00:25:00,
2013-01-10 18:35:00,35.1,30.8,30.08,ESE,103,5.0,8.0,84,0.00,,,0.01,Wunderground v.1.15,2013-01-11 00:35:00,
2013-01-10 18:45:00,34.9,31.1,30.07,ESE,113,4.0,5.0,86,0.00,,,0.02,Wunderground v.1.15,2013-01-11 00:45:00,
2013-01-10 18:55:00,34.8,31.0,30.06,East,101,4.0,6.0,86,0.00,,,0.02,Wunderground v.1.15,2013-01-11 00:55:00,
2013-01-10 19:00:00,34.8,31.3,30.06,ESE,123,5.0,5.0,87,0.00,,,0.03,Wunderground v.1.15,2013-01-11 01:00:00,
2013-01-10 19:10:00,34.6,31.7,30.05,ESE,104,5.0,5.0,89,0.00,,,0.03,Wunderground v.1.15,2013-01-11 01:10:00,
2013-01-10 19:15:00,34.3,31.4,30.04,East,94,5.0,7.0,89,0.05,,,0.04,Wunderground v.1.15,2013-01-11 01:15:00,
2013-01-10 19:25:00,34.0,31.6,30.03,SE,137,5.0,6.0,91,0.20,,,0.07,Wunderground v.1.15,2013-01-11 01:25:00,
2013-01-10 19:35:00,33.7,31.9,30.02,East,92,6.0,6.0,93,0.15,,,0.10,Wunderground v.1.15,2013-01-11 01:35:00,
2013-01-10 19:45:00,33.6,32.1,30.01,East,92,5.0,7.0,94,0.23,,,0.13,Wunderground v.1.15,2013-01-11 01:45:00,
2013-01-10 19:50:00,33.7,32.2,30.01,ESE,103,5.0,5.0,94,0.14,,,0.14,Wunderground v.1.15,2013-01-11 01:50:00,
2013-01-10 20:00:00,33.7,32.4,29.99,East,94,5.0,7.0,95,0.18,,,0.17,Wunderground v.1.15,2013-01-11 02:00:00,
2013-01-10 20:10:00,33.7,32.4,29.99,ESE,106,6.0,6.0,95,0.11,,,0.19,Wunderground v.1.15,2013-01-11 02:10:00,
2013-01-10 20:15:00,33.7,32.7,29.99,ESE,104,5.0,6.0,96,0.07,,,0.20,Wunderground v.1.15,2013-01-11 02:15:00,
2013-01-10 20:20:00,33.8,32.8,29.98,East,94,5.0,6.0,96,0.14,,,0.21,Wunderground v.1.15,2013-01-11 02:20:00,
2013-01-10 20:30:00,33.9,32.9,29.98,SE,126,6.0,6.0,96,0.13,,,0.23,Wunderground v.1.15,2013-01-11 02:30:00,
2013-01-10 20:40:00,33.9,32.9,29.98,ESE,115,4.0,4.0,96,0.09,,,0.25,Wunderground v.1.15,2013-01-11 02:40:00,
2013-01-10 20:50:00,34.0,33.0,29.96,SSE,165,4.0,4.0,96,0.06,,,0.26,Wunderground v.1.15,2013-01-11 02:50:00,
2013-01-10 21:00:00,34.0,33.0,29.95,ESE,115,5.0,5.0,96,0.05,,,0.26,Wunderground v.1.15,2013-01-11 03:00:00,
2013-01-10 21:10:00,34.1,33.3,29.95,ESE,121,5.0,5.0,97,0.00,,,0.26,Wunderground v.1.15,2013-01-11 03:10:00,
2013-01-10 21:20:00,34.2,33.4,29.94,ESE,116,5.0,5.0,97,0.00,,,0.27,Wunderground v.1.15,2013-01-11 03:20:00,
2013-01-10 21:30:00,34.4,33.6,29.94,SSE,147,6.0,6.0,97,0.00,,,0.27,Wunderground v.1.15,2013-01-11 03:30:00,
2013-01-10 21:40:00,34.5,33.7,29.95,SSE,148,5.0,5.0,97,0.00,,,0.27,Wunderground v.1.15,2013-01-11 03:40:00,
2013-01-10 21:45:00,34.5,33.7,29.93,East,96,5.0,8.0,97,0.00,,,0.27,Wunderground v.1.15,2013-01-11 03:45:00,
2013-01-10 21:55:00,34.4,33.6,29.91,East,94,6.0,7.0,97,0.00,,,0.28,Wunderground v.1.15,2013-01-11 03:55:00,
2013-01-10 22:00:00,34.4,33.6,29.91,ESE,109,5.0,5.0,97,0.00,,,0.28,Wunderground v.1.15,2013-01-11 04:00:00,
2013-01-10 22:10:00,34.4,33.6,29.90,SSE,147,5.0,5.0,97,0.00,,,0.28,Wunderground v.1.15,2013-01-11 04:10:00,
2013-01-10 22:20:00,34.4,33.6,29.90,SSE,148,5.0,5.0,97,0.00,,,0.28,Wunderground v.1.15,2013-01-11 04:20:00,
2013-01-10 22:30:00,34.4,33.6,29.89,SE,131,5.0,5.0,97,0.00,,,0.28,Wunderground v.1.15,2013-01-11 04:30:00,
2013-01-10 22:40:00,34.3,33.5,29.87,ESE,120,5.0,7.0,97,0.00,,,0.28,Wunderground v.1.15,2013-01-11 04:40:00,
2013-01-10 22:45:00,34.3,33.5,29.86,ESE,122,5.0,7.0,97,0.00,,,0.28,Wunderground v.1.15,2013-01-11 04:45:00,
2013-01-10 22:55:00,34.3,33.5,29.88,ESE,122,5.0,5.0,97,0.00,,,0.28,Wunderground v.1.15,2013-01-11 04:55:00,
2013-01-10 23:05:00,34.4,33.6,29.87,SSE,148,5.0,11.0,97,0.00,,,0.28,Wunderground v.1.15,2013-01-11 05:05:00,
2013-01-10 23:10:00,34.4,33.6,29.87,SE,134,5.0,9.0,97,0.00,,,0.28,Wunderground v.1.15,2013-01-11 05:10:00,
2013-01-10 23:15:00,34.4,33.6,29.86,SSE,150,5.0,9.0,97,0.00,,,0.28,Wunderground v.1.15,2013-01-11 05:15:00,
2013-01-10 23:25:00,34.3,33.8,29.86,SE,124,5.0,5.0,98,0.00,,,0.28,Wunderground v.1.15,2013-01-11 05:25:00,
2013-01-10 23:30:00,34.4,33.9,29.86,SE,146,4.0,6.0,98,0.00,,,0.28,Wunderground v.1.15,2013-01-11 05:30:00,
2013-01-10 23:35:00,34.4,33.9,29.86,SE,128,5.0,6.0,98,0.00,,,0.28,Wunderground v.1.15,2013-01-11 05:35:00,
2013-01-10 23:45:00,34.4,33.9,29.86,SSE,148,5.0,7.0,98,0.00,,,0.28,Wunderground v.1.15,2013-01-11 05:45:00,
2013-01-10 23:55:00,34.5,34.0,29.85,SSE,148,4.0,5.0,98,0.00,,,0.28,Wunderground v.1.15,2013-01-11 05:55:00,